Regional Weather Roundup
Issued by NWS Charleston, SC

Current Version | Previous Version | Text Only | Print | Product List | Glossary Off
Versions: 1 2 3 4 5 6 7 8 9 10 11 12 13 14 15 16 17 18 19 20 21 22 23 24 25 26 27 28 29 30 31 32 33 34 35 36 37 38 39 40 41 42 43 44 45 46 47 48 49 50

000
ASUS42 KCHS 251610
RWRCHS

REGIONAL WEATHER ROUNDUP
NATIONAL WEATHER SERVICE CHARLESTON SC
1100 AM EST SUN JAN 25 2015

NOTE: "FAIR" INDICATES FEW OR NO CLOUDS BELOW 12,000 FEET WITH NO
SIGNIFICANT WEATHER AND/OR OBSTRUCTIONS TO VISIBILITY.

NOT ALL STATIONS ARE QUALITY CONTROLLED BY THE NATIONAL
WEATHER SERVICE. USE DATA WITH CAUTION...ESPECIALLY
DEWPOINT OBSERVATIONS.

SCZ027-030-031-034>040-042>050-251700-
...SOUTHEAST SOUTH CAROLINA...

CITY           SKY/WX    TMP DP  RH WIND       PRES   REMARKS
N CHARLESTON   MOSUNNY   46  33  60 W5        30.02S
WATERFRONT PRK   N/A     52 N/A N/A NW3         N/A
MOUNT PLEASANT LGT RAIN N/A N/A N/A CALM      30.01S
PINOPOLIS      NOT AVBL
MONCKS CORNER  FAIR      48  36  61 CALM      30.02R
SUMMERVILLE    FAIR      46  36  66 CALM      30.03S
BEAUFORT MCAS  MOSUNNY   52  34  50 VRB3      30.03R
BEAUFORT ARPT  FAIR      50  36  57 NW3       30.02F
HILTON HEAD IS SUNNY     50  36  57 SW5       30.04R
WALTERBORO     SUNNY     50  32  50 N3        30.02S
ALLENDALE      FAIR      50  34  53 NW6       30.00F

...SOUTHERN MIDLANDS AND PEE DEE...

CITY           SKY/WX    TMP DP  RH WIND       PRES   REMARKS
GEORGETOWN     NOT AVBL
KINGSTREE      NOT AVBL
ORANGEBURG     SUNNY     48  32  53 SW3       30.00S
BARNWELL       FAIR      52  34  50 W3        30.00F
AIKEN          FAIR      48  34  57 SW7       30.00F
MANNING        NOT AVBL
COLUMBIA       MOSUNNY   48  33  56 CALM      29.98S
SUMTER         SUNNY     49  31  51 S6        29.97S
FLORENCE       SUNNY     50  35  56 SE6       29.98S
MYRTLE BEACH   SUNNY     50  34  53 CALM      30.03S
N MYRTLE BEACH SUNNY     48  34  58 VRB3      30.00S

$$

GAZ063-065-086>088-099>101-113>116-118-119-134>141-150-251700-
...SOUTHEAST GEORGIA...

CITY           SKY/WX    TMP DP  RH WIND       PRES   REMARKS
SAVANNAH ARPT  MOSUNNY   52  33  48 NW6       30.03S
HUNTER AAF     SUNNY     52  35  52 VRB5      30.02S
FORT STEWART   SUNNY     51  35  53 VRB6      30.03S
STATESBORO     SUNNY     51  35  53 W7        30.02F
SYLVANIA       SUNNY     51  36  57 NW6       30.02F
CLAXTON        FAIR      52  37  58 W6        30.04R

...CSRA...CENTRAL AND FAR SOUTHEAST GEORGIA...

CITY           SKY/WX    TMP DP  RH WIND       PRES   REMARKS
THOMSON        SUNNY     51  37  57 CALM      30.01F
AUGUSTA-BUSH   SUNNY     50  31  48 VRB5      29.99F
AUGUSTA-DANIEL SUNNY     51  31  46 W5        29.98F
SWAINSBORO     FAIR      52  25  35 W6        30.02F
VIDALIA        SUNNY     52  36  54 CALM      30.03S
EASTMAN        FAIR      51  37  57 SW6       30.05F
HAZLEHURST     FAIR      53  38  55 SW3       30.03S
ALMA           SUNNY     52  35  52 NW5       30.04F
WAYCROSS       SUNNY     55  39  56 NW5       30.05S
JESUP          FAIR      54  39  58 NW6       30.05F
BAXLEY         FAIR      54  36  50 W6        30.04S
BRUNSWICK      SUNNY     54  36  50 W6        30.06S
SAINT SIMONS   SUNNY     53  33  46 W8        30.06S

$$

SCZ027-028-034-036>038-045-046-048>050-GAZ119-141-251700-
...LAKE AND SUPPLEMENTAL COASTAL OBSERVATIONS...

STATION/POSITION TIME  TEMP    WIND        PRES    WAVE   SWELL
                       AIR SEA DIR/SP/G            HT/PER HT/PER/DIR
                 (UTC) (F)     (DEG/KT/KT) (MB)    (FT/S) (FT/S/D)
UPR LAKE MARION  NOT AVBL
WINYAH BAY       1500   45     310/  5     1015.0S
LAKE MURRAY      1500   44     210/  5/  7 1014.9R
ACE BASIN NERRS  NOT AVBL
FORT PULASKI     1600   48 53  280/  6/  8 1017.6R
SAPELO ISLAND    1500   47     290/  5     1017.0S

$$

ANZ835-935-AMZ111-154-330-350-352-354-370-450-454-472-251700-
...C-MAN AND BUOY OBSERVATIONS...

STATION/POSITION TIME  TEMP    WIND        PRES    WAVE   SWELL
                       AIR SEA DIR/SP/G            HT/PER HT/PER/DIR
                 (UTC) (F)     (DEG/KT/KT) (MB)    (FT/S) (FT/S/D)
BUOY 41004       1600   52 69  330/  6/  8 1016.0R   4/ 6   3/ 6
BUOY 41008       1600   48 55  300/  8/  8 1017.3R   2/ 3
FOLLY BEACH CMAN 1500   48     340/  4/  6 1016.7R
CAPERS NEARSHORE 1500   48     360/  6/  8   N/A
FRIPP NEARSHORE  1500   47     300/  8/  8   N/A


STATION/POSITION TIME  TEMP    WIND        PRES    WAVE   SWELL
                       AIR SEA DIR/SP/G            HT/PER HT/PER/DIR
                 (UTC) (F)     (DEG/KT/KT) (MB)    (FT/S) (FT/S/D)
5E ST. MARYS GA  1600      58                N/A     1/10
FRYING PAN BUOY  1600   50 66  360/  6/ 10 1016.1F   5/ 8   5/200/ 8
BUOY 41025       1600   47 69  320/ 10/ 14 1015.6R   6/10   5/160/10
CAPE LOOKOUT NC  1500   45     300/  8/  9 1016.0R
BUOY 41002       1515   64 72  270/ 12/ 16 1015.7R   9/ 8   8/260/ 8
BUOY 41010       1600   65 76  320/  4/  8 1017.6R   5/ 8   5/320/ 8
ST AUGUSTINE FL  1600   52     280/  2/  3 1019.2F


$$



USA.gov is the U.S. government's official web portal to all federal, state and local government web resources and services.